Weather Roundup
Issued by NWS

Home | Current Version | Previous Version | Text Only | Print | Product List | Glossary On
Versions: 1 2 3 4 5 6 7 8 9 10 11 12 13 14 15 16 17 18 19 20 21 22 23 24 25 26 27 28 29 30 31 32 33 34 35 36 37 38 39 40 41 42 43 44 45 46 47 48 49 50
000
NZUS93 KARX 311010
HRRWXR

CURRENT HOURLY OBSERVATIONS ACROSS
MUCH OF THE UPPER MISSISSIPPI VALLEY
NATIONAL WEATHER SERVICE LA CROSSE WI
500 AM CDT FRI JUL 31 2015


...SOUTHEAST MINNESOTA...


CITY           SKY/WX    TMP DP  RH WIND       PRES   REMARKS
ROCHESTER      CLEAR     62  59  90 W9        30.07S
ROCHESTER/MAYO FAIR      66  59  77 W10       30.05S
WINONA         CLEAR     63  59  88 CALM      30.02S
AUSTIN         CLEAR     66  61  82 W5        30.07S
ALBERT LEA     CLEAR     64  61  88 W5        30.09R
DODGE CENTER   CLEAR     59  57  94 W7        30.07R
PRESTON        CLEAR     62  58  88 W8        30.06S
OWATONNA       CLEAR     59  55  88 W3        30.08R
FARIBAULT      CLEAR     63  61  94 W6        30.07S
$$

...ELSEWHERE IN MINNESOTA...


CITY           SKY/WX    TMP DP  RH WIND       PRES   REMARKS
MINNEAPOLIS    CLEAR     67  55  65 NW9       30.04R
INTNL FALLS    CLEAR     55  54  96 W7        29.91S
DULUTH         PTCLDY    62  52  69 W10       29.94R
RED WING       CLEAR     63  61  94 W3        30.02R
REDWOOD FALLS  CLEAR     61  57  87 NW7       30.10R
MANKATO        CLEAR     64  57  77 NW8       30.08S
WORTHINGTON    MOCLDY    61  54  77 W3        30.14S
FAIRMONT       CLEAR     63  55  77 CALM      30.10S
$$

...SOUTHWEST WISCONSIN...


CITY           SKY/WX    TMP DP  RH WIND       PRES   REMARKS
LA CROSSE      CLEAR     65  61  87 E3        30.01R
PRAIRIE DU CHI CLEAR     68  62  79 W8        30.03R
BOSCOBEL       PTCLDY    61  59  93 CALM      30.03R
LONE ROCK      PTCLDY    59  57  93 W3        30.02S
PLATTEVILLE    MOCLDY    65  64  94 N13       30.04R
FORT MC COY    CLEAR     55  53  92 CALM      30.01S
CAMP DOUGLAS   CLEAR     62  62 100 W6        29.99S
VIROQUA        FAIR      61  60  98 W6        30.04S
WIS DELLS      CLEAR     64  56  75 SW3       30.00S
$$

...ELSEWHERE IN WISCONSIN...


CITY           SKY/WX    TMP DP  RH WIND       PRES   REMARKS
MILWAUKEE      CLEAR     70  56  61 W3        29.98F
MADISON        PTCLDY    68  57  68 CALM      29.99F
GREEN BAY      CLEAR     65  58  78 W9        29.93S
EAU CLAIRE     CLEAR     62  57  83 W8        29.98R
BLACK RVR FLS  FAIR      53  53 100 CALM      29.99S
MEDFORD        CLEAR     59  56  88 W5        29.96S
WAUSAU         CLEAR     65  57  75 NW12      29.93F
WIS RAPIDS     CLEAR     62  57  83 W7        29.99S
MARSHFIELD     CLEAR     62  55  77 W7        29.97F
RICE LAKE      CLEAR     60  55  84 W6        30.00S
$$

...NORTHEAST IOWA...


CITY           SKY/WX    TMP DP  RH WIND       PRES   REMARKS
DECORAH        PTCLDY    64  63  94 SW3       30.05S
MASON CITY     CLEAR     63  61  93 W7        30.11R
CHARLES CITY   CLEAR     64  64 100 W7        30.08S
OELWEIN          N/A     64  64 100 W6        30.08S
$$

...ELSEWHERE IN IOWA...


CITY           SKY/WX    TMP DP  RH WIND       PRES   REMARKS
DES MOINES     MOCLDY    71  63  75 W5        30.10S
IOWA CITY      CLEAR     66  62  87 W5        30.08S
FORT DODGE     CLEAR     64  59  82 CALM      30.13S
$$

...NORTHERN ILLINOIS...


CITY           SKY/WX    TMP DP  RH WIND       PRES   REMARKS
CHICAGO-OHARE  CLEAR     67  58  72 W7        30.01F
CHICAGO-MIDWAY CLEAR     72  57  59 W5        30.02F
MOLINE         CLEAR     66  63  90 SW5       30.06F
ROCKFORD       PTCLDY    62  58  86 S7        30.04F
PEORIA         CLEAR     70  62  76 W5        30.08F
$$

NOTE: "FAIR" INDICATES FEW OR NO CLOUDS BELOW 12,000 FEET WITH NO
SIGNIFICANT WEATHER AND/OR OBSTRUCTIONS TO VISIBILITY. WIND
SPEEDS ARE IN MILES-PER-HOUR.



USA.gov is the U.S. government's official web portal to all federal, state and local government web resources and services.